This demonstration page uses our WeatherBlox Daily Observations layout. Learn more.

Left ArrowRight Arrow

47.50024, -111.30081

Hourly Observations for January 2, 2020

Temp ( °F °C ) Dew Point ( °F °C ) Humidity (%) Winds ( mph kmh ) Pressure ( in mb ) Visibility ( mi km ) Precip ( " mm )
12:53 am 00:53 Clear 30 -1.1 22 -5.6 72 72 SW 14 22 29.57 1002 10 16 0.00 0.00
1:53 am 01:53 Clear 32 0 22 -5.6 66 66 SW 13 20 29.60 1002 10 16 0.00 0.00
2:53 am 02:53 Partly Cloudy 31 -0.6 20 -6.7 64 64 SW 14 22 29.63 1003 10 16 0.00 0.00
3:53 am 03:53 Cloudy 37 2.8 20 -6.7 50 50 WSW 16 26 29.63 1003 10 16 0.00 0.00
4:53 am 04:53 Mostly Clear 31 -0.6 19 -7.2 61 61 SW 12 19 29.65 1004 10 16 0.00 0.00
5:53 am 05:53 Clear 31 -0.6 20 -6.7 64 64 SW 15 24 29.63 1003 10 16 0.00 0.00
6:53 am 06:53 Partly Cloudy 36 2.2 22 -5.6 57 57 SW 26 43 29.60 1002 10 16 0.00 0.00
7:53 am 07:53 Mostly Cloudy 36 2.2 23 -5 59 59 SW 20 31 29.61 1003 10 16 0.00 0.00
8:53 am 08:53 Mostly Cloudy 35 1.7 23 -5 61 61 SW 22 35 29.63 1004 10 16 0.00 0.00
9:53 am 09:53 Sunny 38 3.3 24 -4.4 57 57 WSW 17 28 29.66 1005 10 16 0.00 0.00
10:53 am 10:53 Sunny 40 4.4 23 -5 51 51 WSW 25 41 29.68 1005 10 16 0.00 0.00
11:53 am 11:53 Mostly Cloudy 41 5 16 -8.9 36 36 W 25 41 29.71 1006 10 16 0.00 0.00
12:53 pm 12:53 Cloudy 40 4.4 14 -10 35 35 WNW 22 35 29.74 1007 10 16 0.00 0.00
1:53 pm 13:53 Cloudy 38 3.3 15 -9.4 39 39 W 25 41 29.78 1009 10 16 0.00 0.00
2:12 pm 14:12 Cloudy 34 1.1 23 -5 64 64 N 17 28 29.82 1010 10 16 0.00 0.00
2:53 pm 14:53 Sunny 33 0.6 21 -6.1 61 61 N 13 20 29.86 1011 10 16 0.00 0.00
3:53 pm 15:53 Mostly Cloudy 30 -1.1 20 -6.7 66 66 NE 7 11 29.88 1012 10 16 0.00 0.00
4:53 pm 16:53 Clear 25 -3.9 17 -8.3 72 72 ENE 8 13 29.95 1014 10 16 0.00 0.00
5:53 pm 17:53 Clear 25 -3.9 18 -7.8 75 75 ESE 6 9 30.00 1016 10 16 0.00 0.00
6:53 pm 18:53 Mostly Clear 25 -3.9 17 -8.3 72 72 SSE 6 9 30.00 1016 10 16 0.00 0.00
7:53 pm 19:53 Clear 23 -5 16 -8.9 74 74 SSE 6 9 30.00 1016 10 16 0.00 0.00
8:53 pm 20:53 Clear 22 -5.6 16 -8.9 78 78 SE 3 6 30.02 1017 10 16 0.00 0.00
9:53 pm 21:53 Clear 19 -7.2 13 -10.6 77 77 SSW 6 9 30.04 1017 10 16 0.00 0.00
10:53 pm 22:53 Clear 19 -7.2 14 -10 81 81 SW 8 13 30.04 1017 10 16 0.00 0.00
11:53 pm 23:53 Partly Cloudy 25 -3.9 17 -8.3 72 72 SW 9 15 30.03 1017 10 16 0.00 0.00

Powered by AerisWeather